EW8063 Weather Reports


Display with metric or nautical units.
time (UTC)temp
F
wind
direction
speed
MPH
gust
MPH
rain 1hr
in
rain 24hr
in
rain mn
in
humidity
%
barometer
mb
20260507210007 85 105 2.0 7.0 0.00 0.00 0.00 81 1016.6
20260507204504 84 132 2.0 7.0 0.00 0.00 0.00 82 1016.6
20260507203000 85 99 1.0 5.0 0.00 0.00 0.00 80 1016.6
20260507201502 85 221 2.0 8.0 0.00 0.00 0.00 82 1016.5
20260507200059 85 148 2.0 8.0 0.00 0.00 0.00 80 1016.7
20260507194620 84 109 2.0 7.0 0.00 0.00 0.00 81 1016.9
20260507193029 85 141 2.0 6.0 0.00 0.00 0.00 80 1016.9
20260507191533 87 125 3.0 8.0 0.00 0.00 0.00 78 1017.2
20260507190024 87 150 3.0 8.0 0.00 0.00 0.00 79 1017.3
20260507184532 87 140 3.0 7.0 0.00 0.00 0.00 78 1017.4
20260507183035 87 164 3.0 8.0 0.00 0.00 0.00 78 1017.7
20260507181523 87 109 3.0 7.0 0.00 0.00 0.00 78 1017.9
20260507180029 86 125 3.0 9.0 0.00 0.00 0.00 79 1018.1
20260507174520 87 128 3.0 8.0 0.00 0.00 0.00 78 1018.3
20260507173029 87 121 3.0 8.0 0.00 0.00 0.00 78 1018.4
20260507171532 86 143 4.0 8.0 0.00 0.00 0.00 78 1018.5
20260507170016 86 108 3.0 9.0 0.00 0.00 0.00 80 1018.6
20260507164516 86 112 4.0 9.0 0.00 0.00 0.00 78 1018.8
20260507163015 86 111 3.0 9.0 0.00 0.00 0.00 78 1018.8
20260507161515 86 139 3.0 8.0 0.00 0.00 0.00 78 1018.9
20260507160012 87 173 3.0 8.0 0.00 0.00 0.00 78 1019.1
20260507154511 86 124 3.0 7.0 0.00 0.00 0.00 78 1019.1
20260507153009 86 150 3.0 8.0 0.00 0.00 0.00 79 1019.0
20260507151509 86 149 3.0 7.0 0.00 0.00 0.00 79 1019.1
20260507150040 86 205 2.0 7.0 0.00 0.00 0.00 80 1019.0
20260507144542 85 161 2.0 8.0 0.00 0.00 0.00 81 1019.1
20260507143036 84 141 3.0 8.0 0.00 0.00 0.00 81 1019.1
20260507141532 85 188 2.0 7.0 0.00 0.00 0.00 81 1019.0
20260507140031 85 210 2.0 7.0 0.00 0.00 0.00 81 1019.0
20260507134530 84 164 2.0 8.0 0.00 0.00 0.00 82 1019.0
20260507133105 83 143 3.0 9.0 0.00 0.00 0.00 83 1019.0
20260507131555 83 190 3.0 6.0 0.00 0.00 0.00 84 1019.0
20260507130051 83 178 2.0 6.0 0.00 0.00 0.00 85 1018.8
20260507124548 82 134 4.0 9.0 0.00 0.00 0.00 86 1018.6
20260507123048 81 143 3.0 7.0 0.00 0.00 0.00 87 1018.4
20260507121544 81 139 3.0 6.0 0.00 0.00 0.00 88 1018.2
20260507120044 80 143 3.0 8.0 0.00 0.00 0.00 88 1018.1
20260507114533 79 144 3.0 9.0 0.00 0.00 0.00 89 1017.7
20260507113041 79 197 3.0 8.0 0.00 0.00 0.00 89 1017.6
20260507111527 79 155 3.0 7.0 0.00 0.00 0.00 89 1017.6
20260507110027 78 130 3.0 8.0 0.00 0.00 0.00 90 1017.4
20260507104521 78 155 3.0 7.0 0.00 0.00 0.00 90 1017.3
20260507103021 78 159 3.0 7.0 0.00 0.00 0.00 90 1017.1
20260507101521 78 150 3.0 9.0 0.00 0.00 0.00 90 1017.0
20260507100026 78 140 2.0 6.0 0.00 0.00 0.00 90 1017.1
20260507094516 78 157 2.0 7.0 0.00 0.00 0.00 90 1017.0
20260507093016 78 154 3.0 7.0 0.00 0.00 0.00 90 1017.1
20260507091518 78 138 3.0 7.0 0.00 0.00 0.00 90 1017.1
20260507090015 78 172 2.0 8.0 0.00 0.00 0.00 90 1017.0
20260507084513 78 157 2.0 7.0 0.00 0.00 0.00 91 1017.1
20260507083011 78 150 2.0 6.0 0.00 0.00 0.00 91 1017.0
20260507081510 78 142 2.0 8.0 0.00 0.00 0.00 91 1016.9
20260507080010 78 153 1.0 7.0 0.00 0.00 0.00 91 1016.9
20260507074505 78 203 1.0 5.0 0.00 0.00 0.00 91 1017.1
20260507073004 77 144 2.0 6.0 0.00 0.00 0.00 91 1017.1
20260507071601 78 112 3.0 6.0 0.00 0.00 0.00 91 1017.2
20260507070100 78 117 1.0 6.0 0.00 0.00 0.00 91 1017.2
20260507064611 77 137 1.0 4.0 0.00 0.00 0.00 91 1017.3
20260507063108 78 135 1.0 6.0 0.00 0.00 0.00 91 1017.5
20260507061556 78 124 1.0 6.0 0.00 0.00 0.00 91 1017.6
20260507060055 78 110 3.0 7.0 0.00 0.00 0.00 91 1017.8
20260507054553 78 117 3.0 6.0 0.00 0.00 0.00 90 1017.9
20260507053052 78 88 3.0 4.0 0.00 0.00 0.00 91 1018.1
20260507051552 78 113 2.0 6.0 0.00 0.00 0.00 90 1018.3
20260507050056 78 92 1.0 6.0 0.00 0.00 0.00 91 1018.5
20260507044523 78 89 2.0 6.0 0.00 0.00 0.00 91 1018.6
20260507043021 78 115 3.0 7.0 0.00 0.00 0.00 91 1018.6
20260507041518 78 121 2.0 6.0 0.00 0.00 0.00 91 1018.8
20260507040017 79 94 2.0 4.0 0.00 0.00 0.00 91 1018.8
20260507034518 79 131 2.0 6.0 0.00 0.00 0.00 90 1019.0
20260507033017 78 99 2.0 4.0 0.00 0.00 0.00 90 1018.8
20260507031514 78 124 1.0 4.0 0.00 0.00 0.00 90 1018.9
20260507030014 78 128 1.0 4.0 0.00 0.00 0.00 90 1019.0
20260507024515 78 131 0.0 3.0 0.00 0.00 0.00 89 1018.9
20260507023013 78 115 1.0 4.0 0.00 0.00 0.00 89 1018.9
20260507021543 79 128 1.0 4.0 0.00 0.00 0.00 89 1019.0
20260507020042 79 148 1.0 4.0 0.00 0.00 0.00 88 1019.0
20260507014539 79 97 2.0 4.0 0.00 0.00 0.00 88 1019.0
20260507013040 79 103 1.0 3.0 0.00 0.00 0.00 88 1018.9
20260507011540 79 100 2.0 4.0 0.00 0.00 0.00 88 1018.7
20260507010040 79 125 0.0 3.0 0.00 0.00 0.00 88 1018.7
20260507004534 79 141 0.0 3.0 0.00 0.00 0.00 88 1018.6
20260507003033 79 131 0.0 3.0 0.00 0.00 0.00 88 1018.4
20260507001549 80 120 2.0 4.0 0.00 0.00 0.00 87 1018.2
20260507000033 80 107 2.0 4.0 0.00 0.00 0.00 86 1018.2
20260506234544 80 113 2.0 4.0 0.00 0.00 0.00 86 1018.1
20260506233029 80 108 1.0 4.0 0.00 0.00 0.00 86 1018.1
20260506231534 81 109 1.0 4.0 0.00 0.00 0.00 85 1018.2
20260506230028 81 100 2.0 4.0 0.00 0.00 0.00 85 1018.1
20260506224529 81 101 2.0 6.0 0.00 0.00 0.00 85 1017.9
20260506223025 81 113 2.0 4.0 0.00 0.00 0.00 84 1017.7
20260506221524 81 101 3.0 6.0 0.00 0.00 0.00 84 1017.6
20260506220033 82 59 3.0 5.0 0.00 0.00 0.00 83 1017.6
20260506214523 82 111 3.0 6.0 0.00 0.00 0.00 83 1017.6
20260506213021 82 111 2.0 6.0 0.00 0.00 0.00 83 1017.5
20260506211523 83 108 3.0 6.0 0.00 0.00 0.00 81 1017.4
20260506210019 83 103 3.0 6.0 0.00 0.00 0.00 82 1017.4